FW0683 Weather Reports


Display with metric or nautical units.
time (UTC)temp
F
wind
direction
speed
MPH
gust
MPH
rain 1hr
in
rain 24hr
in
rain mn
in
humidity
%
barometer
mb
20260505053041 55 333 0.0 0.0 0.00 0.00 0.00 61 1013.4
20260505051555 56 143 0.0 0.0 0.00 0.00 0.00 60 1013.3
20260505041528 57 221 0.0 1.0 0.00 0.00 0.00 55 1013.4
20260505040026 58 160 0.0 0.0 0.00 0.00 0.00 55 1013.2
20260505034524 58 125 0.0 0.0 0.00 0.00 0.00 53 1013.2
20260505033025 59 320 0.0 1.0 0.00 0.00 0.00 52 1013.1
20260505031523 59 281 0.0 1.0 0.00 0.00 0.00 52 1013.0
20260505030023 60 59 0.0 2.0 0.00 0.00 0.00 51 1013.0
20260505024522 60 255 0.0 0.0 0.00 0.00 0.00 50 1013.2
20260505023022 61 171 0.0 1.0 0.00 0.00 0.00 49 1013.1
20260505021522 61 139 0.0 0.0 0.00 0.00 0.00 48 1013.0
20260505020021 62 252 0.0 5.0 0.00 0.00 0.00 49 1012.9
20260505014520 62 273 0.0 2.0 0.00 0.00 0.00 46 1012.7
20260505013020 62 225 0.0 4.0 0.00 0.00 0.00 47 1012.4
20260505011520 63 219 0.0 4.0 0.00 0.00 0.00 45 1012.1
20260505010019 63 180 0.0 6.0 0.00 0.00 0.00 43 1011.8
20260505004520 61 300 0.0 0.0 0.00 0.00 0.00 42 1011.4
20260505003022 61 334 0.0 0.0 0.00 0.00 0.00 42 1011.0
20260505001518 62 222 0.0 0.0 0.00 0.00 0.00 41 1010.7
20260505000017 63 222 0.0 0.0 0.00 0.00 0.00 40 1010.5
20260504234521 64 82 0.0 0.0 0.00 0.00 0.00 38 1010.2
20260504233016 66 164 0.0 0.0 0.00 0.00 0.00 36 1010.1
20260504231515 67 28 0.0 1.0 0.00 0.00 0.00 37 1010.0
20260504230016 68 284 0.0 0.0 0.00 0.00 0.00 35 1009.8
20260504224514 69 196 0.0 3.0 0.00 0.00 0.00 35 1009.6
20260504223014 69 6 0.0 0.0 0.00 0.00 0.00 33 1009.6
20260504221514 69 227 0.0 4.0 0.00 0.00 0.00 33 1009.4
20260504220013 70 20 0.0 5.0 0.00 0.00 0.00 32 1009.4
20260504214512 70 232 0.0 4.0 0.00 0.00 0.00 34 1009.4
20260504213016 70 276 0.0 2.0 0.00 0.00 0.00 31 1009.4
20260504211511 71 143 0.0 1.0 0.00 0.00 0.00 30 1009.4
20260504210010 71 260 0.0 3.0 0.00 0.00 0.00 30 1009.4
20260504204509 71 243 0.0 1.0 0.00 0.00 0.00 29 1009.3
20260504203015 71 237 0.0 4.0 0.00 0.00 0.00 29 1009.3
20260504201508 72 307 0.0 5.0 0.00 0.00 0.00 29 1009.3
20260504200007 72 117 0.0 7.0 0.00 0.00 0.00 28 1009.3
20260504194507 72 277 0.0 9.0 0.00 0.00 0.00 28 1009.3
20260504193013 73 331 0.0 2.0 0.00 0.00 0.00 28 1009.6
20260504191513 72 274 0.0 9.0 0.00 0.00 0.00 30 1009.6
20260504190002 71 39 0.0 1.0 0.00 0.00 0.00 29 1009.7
20260504184501 72 277 0.0 10.0 0.00 0.00 0.00 29 1009.9
20260504183101 73 162 0.0 9.0 0.00 0.00 0.00 29 1009.8
20260504181559 72 271 0.0 4.0 0.00 0.00 0.00 28 1009.9
20260504180059 72 124 0.0 7.0 0.00 0.00 0.00 29 1010.0
20260504174559 72 258 0.0 5.0 0.00 0.00 0.00 29 1010.0
20260504173056 71 273 0.0 6.0 0.00 0.00 0.00 29 1010.3
20260504171551 71 257 0.0 10.0 0.00 0.00 0.00 30 1010.3
20260504081523 40 142 0.0 0.0 0.00 0.01 0.00 76 1013.9